Regional Weather Roundup
Issued by NWS Kansas City/Pleasant Hill, MO

Home | Current Version | Previous Version | Graphics & Text | Print | Product List | Glossary Off
Versions: 1 2 3 4 5 6 7 8 9 10 11 12 13 14 15 16 17 18 19 20 21 22 23 24 25 26 27 28 29 30 31 32 33 34 35 36 37 38 39 40 41 42 43 44 45 46 47 48 49 50

418
ASUS43 KEAX 291010
RWREAX

WEATHER ROUNDUP FOR EASTERN KANSAS AND NORTHWEST MISSOURI
NATIONAL WEATHER SERVICE KANSAS CITY/PLEASANT HILL MO
500 AM CDT FRI APR 29 2016

KSZ040-057-103>105-MOZ028-029-037-043-291100-
...KANSAS CITY METROPOLITAN AREA...

CITY           SKY/WX    TMP DP  RH WIND       PRES   REMARKS
K.C. INTL      CLOUDY    48  43  82 NE8       30.04S
K.C. DOWNTOWN  CLOUDY    51  44  77 NE9       30.03F
LEES SUMMIT    MOCLDY    49  44  83 NE8       30.04F
OLATHE - IXD   PTCLDY    49  44  83 NE7       30.03F
OLATHE - OJC   PTCLDY    49  44  83 NE8       30.02F
LAWRENCE       MOCLDY    49  44  83 E5        30.04F

$$

MOZ001>008-011>017-020>025-030>033-038>040-044>046-053-054-291100-
...NORTHERN AND CENTRAL MISSOURI...

CITY           SKY/WX    TMP DP  RH WIND       PRES   REMARKS
ST. JOSEPH     CLOUDY    47  41  80 NE15      30.03F
MOSBY            N/A     50  43  76 NE3       30.05F
WARRENSBURG    CLOUDY    48  45  87 N7        30.05F
WHITEMAN AFB   MOCLDY    49  49  99 NE9       30.04F
CLINTON        CLOUDY    48  46  93 NE9       30.03F
SEDALIA        CLOUDY    50  46  86 NE7       30.06F
WARSAW         NOT AVBL
CHILLICOTHE      N/A     50  45  83 N12       30.04F
KIRKSVILLE     CLOUDY    47  43  86 NW5       30.10S

$$

MOZ041-047>049-056>058-063>065-088>090-097-291100-
...EASTERN AND SOUTHERN MISSOURI...

CITY           SKY/WX    TMP DP  RH WIND       PRES   REMARKS
ST. LOUIS INTL CLOUDY    56  49  77 CALM      30.07S
SPIRIT OF STL  CLOUDY    53  50  89 CALM      30.06S
COLUMBIA       CLOUDY    50  47  89 N8        30.05F
JEFFERSON CITY MOCLDY    51  47  86 N3        30.06F
ROLLA          CLOUDY    51  47  86 N8        30.04F
OSAGE BEACH    CLOUDY    50  39  66 NE5       30.04F
SPRINGFIELD    PTCLDY    53  46  77 NE12      29.99F
JOPLIN         CLOUDY    52  47  83 NE10      29.97R
WEST PLAINS    CLOUDY    53  47  79 NE9       29.99S

$$

IAZ060-094-KSZ022-034>040-054-083-096-NEZ052-066-093-291100-
...KANSAS...SOUTHEAST NEBRASKA AND IOWA...

CITY           SKY/WX    TMP DP  RH WIND       PRES   REMARKS
TOPEKA         MOCLDY    49  44  83 NE7       30.05R
MANHATTAN      CLOUDY    50  41  71 VRB7G22   30.06S
EMPORIA        CLOUDY    49  44  83 NE16      29.99F
CHANUTE        CLEAR     52  45  77 NE14G22   29.97F
WICHITA        CLOUDY    53  45  74 NE18G25   29.91F
OMAHA          CLOUDY    45  41  86 N8        30.12S
LINCOLN        CLOUDY    46  41  82 N6        30.13S
FALLS CITY     CLOUDY    47  40  76 N12       30.06F
LAMONI         CLOUDY    46  42  86 NW6       30.10S
DES MOINES     CLOUDY    47  42  83 N6        30.10F

$$





USA.gov is the U.S. government's official web portal to all federal, state and local government web resources and services.